Weather in Krivyachka

Russia / Kostroma Oblast     58°39′44″N   45°27′18″E
temp.,
°C
wind,
m/s
gust,
m/s
humid.,
%
clouds,
%
prec.,
mm/h
press.,
hPa
HPBL,
m
12 august, fri
fri1200:00+13wsw2779100 0.0 1022118
03:00+13wsw2882100 0.0 1022172
06:00+14wsw31275100 0.0 1022341
09:00+20w5105447 0.0 1021749
12:00+23w584440 0.0 10191367
15:00+25w58437 0.0 10181732
18:00+23w49565 0.0 10181164
21:00+17w310800 0.0 1019224
13 august, sat
sat1300:00+15wnw29950 0.0 1020190
03:00+13nw26904 0.0 1021123
06:00+14nw26795 0.0 1022163
09:00+20nw35565 0.0 1022673
12:00+24nw36451 0.0 10211563
15:00+24nw354977 0.0 10211573
18:00+20n256973 0.0 1021176
21:00+16nne117654 0.0 102117
14 august, sun
sun1400:00+16ne1176100 0.0 102121
03:00+14nne119454 0.4 102229
06:00+14ne129349 0.0 102276
09:00+20ne116922 0.0 1022502
12:00+22sse01587 0.0 1022931
15:00+25w124715 0.0 10211816
18:00+22ene006434 0.0 102111
21:00+17e118111 0.0 102215
15 august, mon
mon1500:00+16ese228862 0.1 102240
03:00+15se118775 0.1 102321
06:00+16ssw11855 0.0 102350
09:00+20sse126877 0.0 1023285
12:00+23ssw225669 0.0 1023793
15:00+24sw22530 0.0 1023859
18:00+23ese00690 0.0 102211
21:00+17ese11835 0.0 102311
16 august, tue
tue1600:00+15ese00911 0.0 102411
03:00+15ene119436 0.0 102511
06:00+17e118846 0.0 102557
09:00+23e126432 0.0 1026512
12:00+26e114752 0.0 10251560
15:00+26ene1143100 0.0 10251963
18:00+23e2265100 0.0 102522
21:00+18e227479 0.0 102612